Weather in Yevmynka

Ukraine / Chernihiv Region     50°50′40″N   30°49′53″E
temp.,
°C
wind,
m/s
gust,
m/s
humid.,
%
clouds,
%
prec.,
mm/h
press.,
hPa
HPBL,
m
23 april, fri
fri2300:00+10sw61179100 1.2 1015349
03:00+8sw359268 1.3 1014101
06:00+6nw5889100 0.1 1016484
09:00+7wnw4575100 0.6 1017646
12:00+8wnw4560100 0.1 10171299
15:00+9w4653100 0.1 10171433
18:00+10wsw475168 0.0 10161570
21:00+7wnw596266 0.1 1017247
24 april, sat
sat2400:00+6wnw6116956 0.0 1017415
03:00+4w711764 0.0 1017443
06:00+3wnw597738 0.0 1017303
09:00+4w71068100 0.1 10181420
12:00+7wnw81044100 0.1 10182495
15:00+8wnw81040100 0.4 10192772
18:00+7wnw8105145 0.2 10191778
21:00+4w48600 0.3 1020146
25 april, sun
sun2500:00+3wsw47681 0.0 1020109
03:00+3wsw48703 0.0 1020154
06:00+2sw48772 0.0 1019180
09:00+6wsw5864100 0.0 1018614
12:00+4wnw579389 1.1 1018482
15:00+5wnw568045 1.5 1018634
18:00+8w584816 0.3 10172130
21:00+4nw35655 0.3 101986
26 april, mon
mon2600:00+3wnw34701 0.0 101949
03:00+2wsw35765 0.0 101865
06:00+1wsw477648 0.0 1018154
09:00+5w69605 0.0 1018829
12:00+7w785783 0.5 10171654
15:00+9w7104694 0.7 10162300
18:00+9wnw584384 0.0 10152209
21:00+5w34515 0.0 101652
27 april, tue
tue2700:00+4sw2258100 0.0 101615
03:00+2sse3361100 0.0 101430
06:00+3ssw4870100 0.1 1014233
09:00+3ssw1296100 2.3 1014335
12:00+4wnw3490100 0.3 1015594
15:00+5nw3376100 0.4 1015822
18:00+7nne24655 0.0 1015809
21:00+3sse2281100 0.0 101616